G4GJR Weather Reports


time (UTC)temp
F
wind
direction
speed
knots
gust
knots
rain 1hr
in
rain 24hr
in
rain mn
in
humidity
%
barometer
mb
20260507104505 53 166 1.7 5.2 0.00 0.00 0.00 70 1017.0
20260507103003 53 168 0.9 4.3 0.00 0.00 0.00 71 1017.0
20260507101503 53 231 0.0 1.7 0.00 0.00 0.00 72 1017.1
20260507100005 53 265 1.7 7.0 0.00 0.00 0.00 71 1017.1
20260507093004 56 157 2.6 5.2 0.00 0.00 0.00 69 1017.0
20260507091504 55 153 2.6 6.1 0.00 0.00 0.00 71 1017.1
20260507084503 54 157 3.5 6.1 0.00 0.00 0.00 76 1017.1
20260507081504 51 174 1.7 5.2 0.00 0.00 0.00 82 1017.1
20260507080004 50 172 1.7 5.2 0.00 0.00 0.00 82 1017.1
20260507074503 51 176 1.7 4.3 0.00 0.00 0.00 82 1017.0
20260507073004 50 134 0.9 4.3 0.00 0.00 0.00 84 1016.9
20260507071504 49 107 0.0 1.7 0.00 0.00 0.00 88 1016.9
20260507070009 48 152 0.9 0.9 0.00 0.00 0.00 89 1016.8
20260507064504 47 81 0.9 1.7 0.00 0.00 0.00 91 1016.8
20260507063004 46 75 0.0 0.9 0.00 0.00 0.00 92 1016.6
20260507061503 45 29 0.9 1.7 0.00 0.00 0.00 92 1016.5
20260507060004 44 55 0.0 0.9 0.00 0.00 0.00 92 1016.4
20260507054503 44 24 0.0 0.9 0.00 0.00 0.00 92 1016.4
20260507053005 43 32 0.0 0.9 0.00 0.00 0.00 92 1016.3
20260507051504 43 26 0.0 1.7 0.00 0.00 0.00 92 1016.3
20260507050005 44 63 0.9 0.9 0.00 0.00 0.00 92 1016.2
20260507044503 44 13 0.0 0.9 0.00 0.00 0.00 91 1016.1
20260507043004 44 49 0.0 1.7 0.00 0.00 0.00 91 1016.1
20260507040004 45 91 0.0 1.7 0.00 0.00 0.00 91 1016.1
20260507034503 45 79 0.9 2.6 0.00 0.00 0.00 91 1016.1
20260507033004 45 17 0.9 2.6 0.00 0.00 0.00 91 1016.1
20260507031504 44 349 0.9 1.7 0.00 0.00 0.00 91 1016.0
20260507030003 44 323 0.9 1.7 0.00 0.00 0.00 91 1016.1
20260507024504 44 329 0.9 1.7 0.00 0.00 0.00 91 1016.0
20260507023004 44 349 0.9 0.9 0.00 0.00 0.00 91 1016.1
20260507021504 44 349 0.0 0.9 0.00 0.00 0.00 92 1016.1
20260507020005 44 349 0.0 0.9 0.00 0.00 0.00 91 1016.1
20260507014503 43 9 0.0 0.9 0.00 0.00 0.00 91 1016.1
20260507013004 43 10 0.0 1.7 0.00 0.00 0.00 91 1016.1
20260507011503 43 342 0.9 1.7 0.00 0.00 0.00 91 1016.1
20260507010004 43 339 0.9 1.7 0.00 0.00 0.00 91 1016.1
20260507004504 42 327 0.0 0.9 0.00 0.00 0.00 91 1016.2
20260507003004 41 305 0.0 0.9 0.00 0.00 0.00 91 1016.3
20260507001504 42 342 0.0 0.9 0.00 0.00 0.00 90 1016.1
20260507000004 42 342 0.0 0.9 0.00 0.00 0.00 90 1016.0
20260506234504 43 342 0.0 0.9 0.00 0.00 0.00 89 1016.1
20260506230004 45 43 0.0 0.9 0.00 0.00 0.00 89 1016.3
20260506224504 45 58 0.0 2.6 0.00 0.00 0.00 90 1016.3
20260506223004 45 33 0.0 0.9 0.00 0.00 0.00 90 1016.3
20260506221505 44 16 0.0 2.6 0.00 0.00 0.00 90 1016.3
20260506220005 44 31 0.0 1.7 0.00 0.00 0.00 90 1016.3
20260506214504 43 31 0.9 4.3 0.00 0.00 0.00 90 1016.2
20260506213004 43 1 0.9 0.9 0.00 0.00 0.00 89 1016.1
20260506211503 43 333 0.9 0.9 0.00 0.00 0.00 88 1016.0
20260506210004 44 25 0.0 1.7 0.00 0.00 0.00 88 1016.0
20260506204504 45 337 0.9 4.3 0.00 0.00 0.00 87 1015.8
20260506201503 46 12 2.6 4.3 0.00 0.00 0.00 86 1015.8
20260506200004 46 9 1.7 5.2 0.00 0.00 0.00 86 1015.6
20260506194504 46 23 1.7 5.2 0.00 0.00 0.00 84 1015.6
20260506193004 47 13 1.7 7.8 0.00 0.00 0.00 83 1015.6
20260506191504 47 4 3.5 7.0 0.00 0.00 0.00 82 1015.5
20260506184503 49 15 1.7 8.7 0.00 0.00 0.00 79 1015.2
20260506183004 49 17 1.7 7.0 0.00 0.00 0.00 78 1015.1
20260506181503 50 77 2.6 11.3 0.00 0.00 0.00 75 1014.8
20260506180004 51 91 2.6 7.0 0.00 0.00 0.00 74 1014.7
20260506174503 51 63 4.3 10.4 0.00 0.00 0.00 73 1014.5
20260506173004 52 40 2.6 8.7 0.00 0.00 0.00 71 1014.5
20260506164504 53 5 5.2 10.4 0.00 0.00 0.00 68 1014.2
20260506163004 53 354 2.6 7.8 0.00 0.00 0.00 65 1014.2
20260506161504 53 333 4.3 7.8 0.00 0.00 0.00 61 1014.1
20260506154504 53 28 1.7 5.2 0.00 0.00 0.00 62 1014.3
20260506153005 52 350 2.6 7.8 0.00 0.00 0.00 62 1014.6
20260506144504 52 24 1.7 5.2 0.00 0.00 0.00 66 1014.6
20260506143004 52 25 4.3 7.8 0.00 0.00 0.00 65 1014.5
20260506141503 52 11 2.6 10.4 0.00 0.00 0.00 65 1014.4
20260506140004 53 50 1.7 7.0 0.00 0.00 0.00 63 1014.5
20260506134504 53 25 2.6 8.7 0.00 0.00 0.00 62 1014.4
20260506133004 54 30 4.3 8.7 0.00 0.00 0.00 62 1014.5
20260506131504 53 27 3.5 10.4 0.00 0.00 0.00 63 1014.4
20260506124505 52 33 4.3 7.8 0.00 0.00 0.00 68 1014.7
20260506123004 51 35 1.7 8.7 0.00 0.00 0.00 72 1014.6
20260506120004 51 17 2.6 7.0 0.00 0.00 0.00 76 1014.8
20260506114503 50 14 3.5 7.8 0.00 0.00 0.00 76 1014.8
20260506113005 51 81 1.7 7.8 0.00 0.00 0.00 73 1014.8
20260506111504 50 53 2.6 7.0 0.00 0.00 0.00 72 1014.8
20260506110004 50 48 3.5 8.7 0.00 0.00 0.00 74 1014.9